Find Starlink 11393

NORAD ID: 62016 Int'l Des: 2024-213 Owner: SPXS Country: US Constellation: starlink operational
別名: STARLINK-11393 [DTC] celestrak
LEOCIRCULAR

現在のビュー

3D地球を読み込み中...

About Starlink 11393

Starlink 11393 (NORAD 62016) is a starlink constellation satellite (v2 mini d2c) launched Nov 18, 2024 by SPXS of US. It operates in LEO, CIRCULAR orbit with a mass of 960.00 kg.

次回通過

Passes for default location (London). Set your location on the main map for personalized predictions.

高度履歴

Loading altitude history...

軌道要素

1 62016U 24213J 26235.46896504 .00164200 00000-0 13311-2 0 9991
2 62016 53.1574 298.8135 0001178 75.5741 284.5408 15.69753396101113
Epoch: Aug 23, 2026 • Age: 18 hours

現在のステータス

高度 371.2 km
遠地点 / 近地点 N/A
速度 7.69 km/s
衛星直下点 -36.89°S, 152.19°W
打ち上げ日 Nov 18, 2024
運用期間 1.7 years
タイプ internet

技術仕様

分類 Payload
質量 960.00 kg
乾燥質量 910.00 kg
総質量 960.00 kg
長さ 0.30 m
直径 4.10 m
スパン 29.00 m
形状 Box + pan
製造者 SPXS
バスタイプ Starlink V2MD
フェーズステータス In Orbit
所有者/国 SPXS/US

Most Searched